COSMOS 1691 DEB, 16269

Orbit data source: Space-Track

COSMOS 1691 DEB, 16269 is space debris in LEO originally from a launch on Wed, 09 Oct 1985 UTC launched from the Plesetsk Missile And Space Complex (PKMTR). Debris objects in space refer to the collection of defunct objects orbiting the Earth. Examples of debris include non-operational satellites, rocket bodies, and fragments generated from explosions, collisions, or faulty payload assembly.

Loading next visibility...
Identifier
16269, 1985-094N
Orbit
LEO
Country
Flag of CISCIS
Related business
Manufacturer
Unknown
Mission
Spacecraft
Bus & Motor
Unknown
Mass
Unknown
Launch date (UTC)
1985-10-09 (40 years ago)
Launch vehicle
Unknown
Launch site
Plesetsk Missile And Space Complex (PKMTR)
Object type
Payload
Rocket body
Debris
Shape & HBR
Unknown shape, 0.2 m
Radar Cross Section
Small (<0.1 m²)

Expand to show TLE details & history
Last TLE update: 12 hours ago

TLE from 12 hours ago
0 COSMOS 1691 DEB
1 16269U 85094N   25341.24896531  .00000066  00000-0  30721-3 0  9991
2 16269  82.6244  72.9451 0012056 188.2720 200.0265 12.62278527849415
Epoch: 2025-12-07T05:58Z
TLE epoch observation values (Epoch: 2025-12-07T05:58:30.602Z)
Latitude
28.03584°
Longitude
-89.01442°
Altitude
1,425.692 km
Speed
7.146 km/s
True Right ascension
05h 07m 30s
True Declination
27° 54' 20"
Sunlit
Object was in full shadow at epoch
Visualization orbit readout
Latitude
Unknown
Longitude
Unknown
Altitude
Unknown
Speed
Unknown
Apparent Right ascension
Unknown
Apparent Declination
Unknown
Sunlit
N/A
Visualization observer readout
Local Sidereal Time
16:20:27
Azimuth
Unknown
Elevation
Unknown
Doppler factor
Unknown
Orbital elements
Apogee altitude
1,420.263 km
Perigee altitude
1,401.482 km
Semi-major axis
7,789.01 km
Eccentricity
0.00121
Inclination
82.6244°
RAAN
72.9451°
Arg. of periapsis
188.272°
True anomaly
199.97926°
Mean anomaly
200.0265°
Eccentric anomaly
200.00287°
Mean motion
3.15733 °/min
Orbital period
114.02 mins
BSTAR
0.00030721
Loading maneuver chart data...
Computing Atmospheric mass density...
Loading historical data...
Loading historical data...
Loading historical data...
Loading historical data...
Loading historical data...
Loading historical data...
Loading historical data...

Documentation

Showing up to 5 results
|